owner,sensor,date,latitude,longitude,vertical_datum,sea_water_practical_salinity,qcFlag 
ENP,ioos.station.NOAA.NDBC:DKKF1:1,2009-12-01T00:00:00Z,25.1800,-80.4900,1.5,32.0,11111222 
ENP,ioos.station.NOAA.NDBC:DKKF1:1,2009-12-01T01:00:00Z,25.1800,-80.4900,1.5,32.0,11111222 
ENP,ioos.station.NOAA.NDBC:DKKF1:1,2009-12-01T03:00:00Z,25.1800,-80.4900,1.5,32.0,11111222 
ENP,ioos.station.NOAA.NDBC:DKKF1:1,2009-12-01T04:00:00Z,25.1800,-80.4900,1.5,32.0,11111222 
ENP,ioos.station.NOAA.NDBC:DKKF1:1,2009-12-01T06:00:00Z,25.1800,-80.4900,1.5,32.0,11111222 
ENP,ioos.station.NOAA.NDBC:DKKF1:1,2009-12-01T07:00:00Z,25.1800,-80.4900,1.5,32.0,11111222 
ENP,ioos.station.NOAA.NDBC:DKKF1:1,2009-12-01T08:00:00Z,25.1800,-80.4900,1.5,32.0,11111222 
ENP,ioos.station.NOAA.NDBC:DKKF1:1,2009-12-01T09:00:00Z,25.1800,-80.4900,1.5,31.9,11111222 
ENP,ioos.station.NOAA.NDBC:DKKF1:1,2009-12-01T10:00:00Z,25.1800,-80.4900,1.5,31.9,11111222 
ENP,ioos.station.NOAA.NDBC:DKKF1:1,2009-12-01T11:00:00Z,25.1800,-80.4900,1.5,31.9,11111222 
ENP,ioos.station.NOAA.NDBC:DKKF1:1,2009-12-01T12:00:00Z,25.1800,-80.4900,1.5,31.9,11111222 
ENP,ioos.station.NOAA.NDBC:DKKF1:1,2009-12-01T14:00:00Z,25.1800,-80.4900,1.5,32.0,11111222 
ENP,ioos.station.NOAA.NDBC:DKKF1:1,2009-12-01T15:00:00Z,25.1800,-80.4900,1.5,32.0,11111222 
ENP,ioos.station.NOAA.NDBC:DKKF1:1,2009-12-01T16:00:00Z,25.1800,-80.4900,1.5,32.0,11111222 
ENP,ioos.station.NOAA.NDBC:DKKF1:1,2009-12-01T17:00:00Z,25.1800,-80.4900,1.5,32.0,11111222 
ENP,ioos.station.NOAA.NDBC:DKKF1:1,2009-12-01T18:00:00Z,25.1800,-80.4900,1.5,32.0,11111222 
ENP,ioos.station.NOAA.NDBC:DKKF1:1,2009-12-01T19:00:00Z,25.1800,-80.4900,1.5,32.0,11111222 
ENP,ioos.station.NOAA.NDBC:DKKF1:1,2009-12-01T20:00:00Z,25.1800,-80.4900,1.5,32.0,11111222 
ENP,ioos.station.NOAA.NDBC:DKKF1:1,2009-12-01T22:00:00Z,25.1800,-80.4900,1.5,32.0,11111222 
ENP,ioos.station.NOAA.NDBC:DKKF1:1,2009-12-01T23:00:00Z,25.1800,-80.4900,1.5,32.0,11111222 
ENP,ioos.station.NOAA.NDBC:DKKF1:1,2009-12-02T00:00:00Z,25.1800,-80.4900,1.5,32.0,11111222 
ENP,ioos.station.NOAA.NDBC:DKKF1:1,2009-12-02T01:00:00Z,25.1800,-80.4900,1.5,32.0,11111222 
ENP,ioos.station.NOAA.NDBC:DKKF1:1,2009-12-02T03:00:00Z,25.1800,-80.4900,1.5,32.4,11111222 
ENP,ioos.station.NOAA.NDBC:DKKF1:1,2009-12-02T04:00:00Z,25.1800,-80.4900,1.5,32.6,11111222 
ENP,ioos.station.NOAA.NDBC:DKKF1:1,2009-12-02T06:00:00Z,25.1800,-80.4900,1.5,32.7,11111222 
ENP,ioos.station.NOAA.NDBC:DKKF1:1,2009-12-02T07:00:00Z,25.1800,-80.4900,1.5,32.7,11111222 
ENP,ioos.station.NOAA.NDBC:DKKF1:1,2009-12-02T08:00:00Z,25.1800,-80.4900,1.5,32.6,11111222 
ENP,ioos.station.NOAA.NDBC:DKKF1:1,2009-12-02T09:00:00Z,25.1800,-80.4900,1.5,32.6,11111222 
ENP,ioos.station.NOAA.NDBC:DKKF1:1,2009-12-02T11:00:00Z,25.1800,-80.4900,1.5,32.6,11111222 
ENP,ioos.station.NOAA.NDBC:DKKF1:1,2009-12-02T12:00:00Z,25.1800,-80.4900,1.5,32.5,11111222 
ENP,ioos.station.NOAA.NDBC:DKKF1:1,2009-12-02T14:00:00Z,25.1800,-80.4900,1.5,32.5,11111222 
ENP,ioos.station.NOAA.NDBC:DKKF1:1,2009-12-02T15:00:00Z,25.1800,-80.4900,1.5,32.4,11111222 
ENP,ioos.station.NOAA.NDBC:DKKF1:1,2009-12-02T16:00:00Z,25.1800,-80.4900,1.5,32.4,11111222 
ENP,ioos.station.NOAA.NDBC:DKKF1:1,2009-12-02T17:00:00Z,25.1800,-80.4900,1.5,32.4,11111222 
ENP,ioos.station.NOAA.NDBC:DKKF1:1,2009-12-02T19:00:00Z,25.1800,-80.4900,1.5,32.4,11111222 
ENP,ioos.station.NOAA.NDBC:DKKF1:1,2009-12-02T20:00:00Z,25.1800,-80.4900,1.5,32.4,11111222 
ENP,ioos.station.NOAA.NDBC:DKKF1:1,2009-12-02T21:00:00Z,25.1800,-80.4900,1.5,32.4,11111222 
ENP,ioos.station.NOAA.NDBC:DKKF1:1,2009-12-02T22:00:00Z,25.1800,-80.4900,1.5,32.4,11111222 
ENP,ioos.station.NOAA.NDBC:DKKF1:1,2009-12-02T23:00:00Z,25.1800,-80.4900,1.5,32.4,11111222 
ENP,ioos.station.NOAA.NDBC:DKKF1:1,2009-12-03T00:00:00Z,25.1800,-80.4900,1.5,32.4,11111222 
ENP,ioos.station.NOAA.NDBC:DKKF1:1,2009-12-03T01:00:00Z,25.1800,-80.4900,1.5,32.4,11111222 
ENP,ioos.station.NOAA.NDBC:DKKF1:1,2009-12-03T03:00:00Z,25.1800,-80.4900,1.5,32.4,11111222 
ENP,ioos.station.NOAA.NDBC:DKKF1:1,2009-12-03T04:00:00Z,25.1800,-80.4900,1.5,32.4,11111222 
ENP,ioos.station.NOAA.NDBC:DKKF1:1,2009-12-03T06:00:00Z,25.1800,-80.4900,1.5,32.4,11111222 
ENP,ioos.station.NOAA.NDBC:DKKF1:1,2009-12-03T07:00:00Z,25.1800,-80.4900,1.5,32.4,11111222 
ENP,ioos.station.NOAA.NDBC:DKKF1:1,2009-12-03T08:00:00Z,25.1800,-80.4900,1.5,32.4,11111222 
ENP,ioos.station.NOAA.NDBC:DKKF1:1,2009-12-03T09:00:00Z,25.1800,-80.4900,1.5,32.4,11111222 
ENP,ioos.station.NOAA.NDBC:DKKF1:1,2009-12-03T10:00:00Z,25.1800,-80.4900,1.5,32.4,11111222 
ENP,ioos.station.NOAA.NDBC:DKKF1:1,2009-12-03T11:00:00Z,25.1800,-80.4900,1.5,32.4,11111222 
ENP,ioos.station.NOAA.NDBC:DKKF1:1,2009-12-03T12:00:00Z,25.1800,-80.4900,1.5,32.4,11111222 
ENP,ioos.station.NOAA.NDBC:DKKF1:1,2009-12-03T14:00:00Z,25.1800,-80.4900,1.5,32.4,11111222 
ENP,ioos.station.NOAA.NDBC:DKKF1:1,2009-12-03T16:00:00Z,25.1800,-80.4900,1.5,32.4,11111222 
ENP,ioos.station.NOAA.NDBC:DKKF1:1,2009-12-03T17:00:00Z,25.1800,-80.4900,1.5,32.4,11111222 
ENP,ioos.station.NOAA.NDBC:DKKF1:1,2009-12-03T19:00:00Z,25.1800,-80.4900,1.5,32.4,11111222 
ENP,ioos.station.NOAA.NDBC:DKKF1:1,2009-12-03T20:00:00Z,25.1800,-80.4900,1.5,32.4,11111222 
ENP,ioos.station.NOAA.NDBC:DKKF1:1,2009-12-03T21:00:00Z,25.1800,-80.4900,1.5,32.4,11111222 
ENP,ioos.station.NOAA.NDBC:DKKF1:1,2009-12-03T22:00:00Z,25.1800,-80.4900,1.5,32.4,11111222 
ENP,ioos.station.NOAA.NDBC:DKKF1:1,2009-12-03T23:00:00Z,25.1800,-80.4900,1.5,32.4,11111222 
ENP,ioos.station.NOAA.NDBC:DKKF1:1,2009-12-04T00:00:00Z,25.1800,-80.4900,1.5,32.4,11111222 
ENP,ioos.station.NOAA.NDBC:DKKF1:1,2009-12-04T01:00:00Z,25.1800,-80.4900,1.5,32.4,11111222 
ENP,ioos.station.NOAA.NDBC:DKKF1:1,2009-12-04T03:00:00Z,25.1800,-80.4900,1.5,32.4,11111222 
ENP,ioos.station.NOAA.NDBC:DKKF1:1,2009-12-04T04:00:00Z,25.1800,-80.4900,1.5,32.4,11111222 
ENP,ioos.station.NOAA.NDBC:DKKF1:1,2009-12-04T06:00:00Z,25.1800,-80.4900,1.5,32.3,11111222 
ENP,ioos.station.NOAA.NDBC:DKKF1:1,2009-12-04T07:00:00Z,25.1800,-80.4900,1.5,32.3,11111222 
ENP,ioos.station.NOAA.NDBC:DKKF1:1,2009-12-04T08:00:00Z,25.1800,-80.4900,1.5,32.3,11111222 
ENP,ioos.station.NOAA.NDBC:DKKF1:1,2009-12-04T09:00:00Z,25.1800,-80.4900,1.5,32.3,11111222 
ENP,ioos.station.NOAA.NDBC:DKKF1:1,2009-12-04T10:00:00Z,25.1800,-80.4900,1.5,32.3,11111222 
ENP,ioos.station.NOAA.NDBC:DKKF1:1,2009-12-04T11:00:00Z,25.1800,-80.4900,1.5,32.3,11111222 
ENP,ioos.station.NOAA.NDBC:DKKF1:1,2009-12-04T12:00:00Z,25.1800,-80.4900,1.5,32.3,11111222 
ENP,ioos.station.NOAA.NDBC:DKKF1:1,2009-12-04T14:00:00Z,25.1800,-80.4900,1.5,32.3,11111222 
ENP,ioos.station.NOAA.NDBC:DKKF1:1,2009-12-04T17:00:00Z,25.1800,-80.4900,1.5,32.5,11111222 
ENP,ioos.station.NOAA.NDBC:DKKF1:1,2009-12-04T18:00:00Z,25.1800,-80.4900,1.5,32.5,11111222 
ENP,ioos.station.NOAA.NDBC:DKKF1:1,2009-12-04T19:00:00Z,25.1800,-80.4900,1.5,32.4,11111222 
ENP,ioos.station.NOAA.NDBC:DKKF1:1,2009-12-04T20:00:00Z,25.1800,-80.4900,1.5,32.5,11111222 
ENP,ioos.station.NOAA.NDBC:DKKF1:1,2009-12-04T22:00:00Z,25.1800,-80.4900,1.5,32.5,11111222 
ENP,ioos.station.NOAA.NDBC:DKKF1:1,2009-12-04T23:00:00Z,25.1800,-80.4900,1.5,32.4,11111222 
ENP,ioos.station.NOAA.NDBC:DKKF1:1,2009-12-05T00:00:00Z,25.1800,-80.4900,1.5,32.4,11111222 
ENP,ioos.station.NOAA.NDBC:DKKF1:1,2009-12-05T01:00:00Z,25.1800,-80.4900,1.5,32.4,11111222 
ENP,ioos.station.NOAA.NDBC:DKKF1:1,2009-12-05T03:00:00Z,25.1800,-80.4900,1.5,32.4,11111222 
ENP,ioos.station.NOAA.NDBC:DKKF1:1,2009-12-05T04:00:00Z,25.1800,-80.4900,1.5,32.4,11111222 
ENP,ioos.station.NOAA.NDBC:DKKF1:1,2009-12-05T06:00:00Z,25.1800,-80.4900,1.5,32.3,11111222 
ENP,ioos.station.NOAA.NDBC:DKKF1:1,2009-12-05T07:00:00Z,25.1800,-80.4900,1.5,32.4,11111222 
ENP,ioos.station.NOAA.NDBC:DKKF1:1,2009-12-05T08:00:00Z,25.1800,-80.4900,1.5,32.3,11111222 
ENP,ioos.station.NOAA.NDBC:DKKF1:1,2009-12-05T09:00:00Z,25.1800,-80.4900,1.5,32.4,11111222 
ENP,ioos.station.NOAA.NDBC:DKKF1:1,2009-12-05T10:00:00Z,25.1800,-80.4900,1.5,32.4,11111222 
ENP,ioos.station.NOAA.NDBC:DKKF1:1,2009-12-05T11:00:00Z,25.1800,-80.4900,1.5,32.3,11111222 
ENP,ioos.station.NOAA.NDBC:DKKF1:1,2009-12-05T12:00:00Z,25.1800,-80.4900,1.5,32.4,11111222 
ENP,ioos.station.NOAA.NDBC:DKKF1:1,2009-12-05T14:00:00Z,25.1800,-80.4900,1.5,32.4,11111222 
ENP,ioos.station.NOAA.NDBC:DKKF1:1,2009-12-05T15:00:00Z,25.1800,-80.4900,1.5,32.4,11111222 
ENP,ioos.station.NOAA.NDBC:DKKF1:1,2009-12-05T16:00:00Z,25.1800,-80.4900,1.5,32.4,11111222 
ENP,ioos.station.NOAA.NDBC:DKKF1:1,2009-12-05T17:00:00Z,25.1800,-80.4900,1.5,32.4,11111222 
ENP,ioos.station.NOAA.NDBC:DKKF1:1,2009-12-06T06:00:00Z,25.1800,-80.4900,1.5,32.3,11111222 
ENP,ioos.station.NOAA.NDBC:DKKF1:1,2009-12-06T07:00:00Z,25.1800,-80.4900,1.5,32.3,11111222 
ENP,ioos.station.NOAA.NDBC:DKKF1:1,2009-12-06T10:00:00Z,25.1800,-80.4900,1.5,32.4,11111222 
ENP,ioos.station.NOAA.NDBC:DKKF1:1,2009-12-06T16:00:00Z,25.1800,-80.4900,1.5,32.5,11111222 
ENP,ioos.station.NOAA.NDBC:DKKF1:1,2009-12-06T17:00:00Z,25.1800,-80.4900,1.5,32.5,11111222 
ENP,ioos.station.NOAA.NDBC:DKKF1:1,2009-12-06T18:00:00Z,25.1800,-80.4900,1.5,32.5,11111222 
ENP,ioos.station.NOAA.NDBC:DKKF1:1,2009-12-06T19:00:00Z,25.1800,-80.4900,1.5,32.6,11111222 
ENP,ioos.station.NOAA.NDBC:DKKF1:1,2009-12-06T20:00:00Z,25.1800,-80.4900,1.5,32.6,11111222 
ENP,ioos.station.NOAA.NDBC:DKKF1:1,2009-12-06T21:00:00Z,25.1800,-80.4900,1.5,32.6,11111222 
ENP,ioos.station.NOAA.NDBC:DKKF1:1,2009-12-06T22:00:00Z,25.1800,-80.4900,1.5,32.5,11111222 
ENP,ioos.station.NOAA.NDBC:DKKF1:1,2009-12-06T23:00:00Z,25.1800,-80.4900,1.5,32.5,11111222 
ENP,ioos.station.NOAA.NDBC:DKKF1:1,2009-12-07T00:00:00Z,25.1800,-80.4900,1.5,32.2,11111222 
ENP,ioos.station.NOAA.NDBC:DKKF1:1,2009-12-07T01:00:00Z,25.1800,-80.4900,1.5,32.3,11111222 
ENP,ioos.station.NOAA.NDBC:DKKF1:1,2009-12-07T03:00:00Z,25.1800,-80.4900,1.5,32.4,11111222 
ENP,ioos.station.NOAA.NDBC:DKKF1:1,2009-12-07T04:00:00Z,25.1800,-80.4900,1.5,32.3,11111222 
ENP,ioos.station.NOAA.NDBC:DKKF1:1,2009-12-07T06:00:00Z,25.1800,-80.4900,1.5,29.7,11111222 
ENP,ioos.station.NOAA.NDBC:DKKF1:1,2009-12-07T07:00:00Z,25.1800,-80.4900,1.5,28.8,11111222 
ENP,ioos.station.NOAA.NDBC:DKKF1:1,2009-12-07T08:00:00Z,25.1800,-80.4900,1.5,28.9,11111222 
ENP,ioos.station.NOAA.NDBC:DKKF1:1,2009-12-07T09:00:00Z,25.1800,-80.4900,1.5,28.5,11111222 
ENP,ioos.station.NOAA.NDBC:DKKF1:1,2009-12-07T10:00:00Z,25.1800,-80.4900,1.5,28.8,11111222 
ENP,ioos.station.NOAA.NDBC:DKKF1:1,2009-12-07T12:00:00Z,25.1800,-80.4900,1.5,28.8,11111222 
ENP,ioos.station.NOAA.NDBC:DKKF1:1,2009-12-07T14:00:00Z,25.1800,-80.4900,1.5,28.7,11111222 
ENP,ioos.station.NOAA.NDBC:DKKF1:1,2009-12-07T15:00:00Z,25.1800,-80.4900,1.5,28.7,11111222 
ENP,ioos.station.NOAA.NDBC:DKKF1:1,2009-12-07T16:00:00Z,25.1800,-80.4900,1.5,28.8,11111222 
ENP,ioos.station.NOAA.NDBC:DKKF1:1,2009-12-07T17:00:00Z,25.1800,-80.4900,1.5,28.8,11111222 
ENP,ioos.station.NOAA.NDBC:DKKF1:1,2009-12-07T19:00:00Z,25.1800,-80.4900,1.5,28.7,11111222 
ENP,ioos.station.NOAA.NDBC:DKKF1:1,2009-12-07T20:00:00Z,25.1800,-80.4900,1.5,29.0,11111222 
ENP,ioos.station.NOAA.NDBC:DKKF1:1,2009-12-07T22:00:00Z,25.1800,-80.4900,1.5,29.3,11111222 
ENP,ioos.station.NOAA.NDBC:DKKF1:1,2009-12-08T05:00:00Z,25.1800,-80.4900,1.5,28.9,11111222 
ENP,ioos.station.NOAA.NDBC:DKKF1:1,2009-12-08T06:00:00Z,25.1800,-80.4900,1.5,28.8,11111222 
ENP,ioos.station.NOAA.NDBC:DKKF1:1,2009-12-08T15:00:00Z,25.1800,-80.4900,1.5,28.9,11111222 
ENP,ioos.station.NOAA.NDBC:DKKF1:1,2009-12-08T16:00:00Z,25.1800,-80.4900,1.5,28.9,11111222 
ENP,ioos.station.NOAA.NDBC:DKKF1:1,2009-12-09T03:00:00Z,25.1800,-80.4900,1.5,29.8,11111222 
ENP,ioos.station.NOAA.NDBC:DKKF1:1,2009-12-09T04:00:00Z,25.1800,-80.4900,1.5,30.8,11111222 
ENP,ioos.station.NOAA.NDBC:DKKF1:1,2009-12-09T17:00:00Z,25.1800,-80.4900,1.5,30.6,11111222 
ENP,ioos.station.NOAA.NDBC:DKKF1:1,2009-12-09T19:00:00Z,25.1800,-80.4900,1.5,30.4,11111222 
ENP,ioos.station.NOAA.NDBC:DKKF1:1,2009-12-09T20:00:00Z,25.1800,-80.4900,1.5,30.4,11111222 
ENP,ioos.station.NOAA.NDBC:DKKF1:1,2009-12-09T21:00:00Z,25.1800,-80.4900,1.5,30.5,11111222 
ENP,ioos.station.NOAA.NDBC:DKKF1:1,2009-12-09T22:00:00Z,25.1800,-80.4900,1.5,30.6,11111222 
ENP,ioos.station.NOAA.NDBC:DKKF1:1,2009-12-09T23:00:00Z,25.1800,-80.4900,1.5,30.1,11111222 
ENP,ioos.station.NOAA.NDBC:DKKF1:1,2009-12-10T00:00:00Z,25.1800,-80.4900,1.5,30.3,11111222 
ENP,ioos.station.NOAA.NDBC:DKKF1:1,2009-12-10T01:00:00Z,25.1800,-80.4900,1.5,30.0,11111222 
ENP,ioos.station.NOAA.NDBC:DKKF1:1,2009-12-10T03:00:00Z,25.1800,-80.4900,1.5,29.9,11111222 
ENP,ioos.station.NOAA.NDBC:DKKF1:1,2009-12-10T04:00:00Z,25.1800,-80.4900,1.5,29.9,11111222 
ENP,ioos.station.NOAA.NDBC:DKKF1:1,2009-12-10T05:00:00Z,25.1800,-80.4900,1.5,29.9,11111222 
ENP,ioos.station.NOAA.NDBC:DKKF1:1,2009-12-10T06:00:00Z,25.1800,-80.4900,1.5,30.0,11111222 
ENP,ioos.station.NOAA.NDBC:DKKF1:1,2009-12-10T07:00:00Z,25.1800,-80.4900,1.5,30.1,11111222 
ENP,ioos.station.NOAA.NDBC:DKKF1:1,2009-12-10T08:00:00Z,25.1800,-80.4900,1.5,30.0,11111222 
ENP,ioos.station.NOAA.NDBC:DKKF1:1,2009-12-10T09:00:00Z,25.1800,-80.4900,1.5,30.1,11111222 
ENP,ioos.station.NOAA.NDBC:DKKF1:1,2009-12-10T11:00:00Z,25.1800,-80.4900,1.5,30.1,11111222 
ENP,ioos.station.NOAA.NDBC:DKKF1:1,2009-12-10T12:00:00Z,25.1800,-80.4900,1.5,30.2,11111222 
ENP,ioos.station.NOAA.NDBC:DKKF1:1,2009-12-10T13:00:00Z,25.1800,-80.4900,1.5,30.2,11111222 
ENP,ioos.station.NOAA.NDBC:DKKF1:1,2009-12-10T14:00:00Z,25.1800,-80.4900,1.5,30.2,11111222 
ENP,ioos.station.NOAA.NDBC:DKKF1:1,2009-12-10T15:00:00Z,25.1800,-80.4900,1.5,30.2,11111222 
ENP,ioos.station.NOAA.NDBC:DKKF1:1,2009-12-10T16:00:00Z,25.1800,-80.4900,1.5,30.1,11111222 
ENP,ioos.station.NOAA.NDBC:DKKF1:1,2009-12-10T17:00:00Z,25.1800,-80.4900,1.5,30.1,11111222 
ENP,ioos.station.NOAA.NDBC:DKKF1:1,2009-12-10T18:00:00Z,25.1800,-80.4900,1.5,30.0,11111222 
ENP,ioos.station.NOAA.NDBC:DKKF1:1,2009-12-10T19:00:00Z,25.1800,-80.4900,1.5,30.0,11111222 
ENP,ioos.station.NOAA.NDBC:DKKF1:1,2009-12-10T20:00:00Z,25.1800,-80.4900,1.5,30.0,11111222 
ENP,ioos.station.NOAA.NDBC:DKKF1:1,2009-12-10T21:00:00Z,25.1800,-80.4900,1.5,30.0,11111222 
ENP,ioos.station.NOAA.NDBC:DKKF1:1,2009-12-10T23:00:00Z,25.1800,-80.4900,1.5,30.0,11111222 
ENP,ioos.station.NOAA.NDBC:DKKF1:1,2009-12-11T00:00:00Z,25.1800,-80.4900,1.5,30.1,11111222 
ENP,ioos.station.NOAA.NDBC:DKKF1:1,2009-12-11T01:00:00Z,25.1800,-80.4900,1.5,30.2,11111222 
ENP,ioos.station.NOAA.NDBC:DKKF1:1,2009-12-11T02:00:00Z,25.1800,-80.4900,1.5,30.1,11111222 
ENP,ioos.station.NOAA.NDBC:DKKF1:1,2009-12-11T03:00:00Z,25.1800,-80.4900,1.5,30.2,11111222 
ENP,ioos.station.NOAA.NDBC:DKKF1:1,2009-12-11T04:00:00Z,25.1800,-80.4900,1.5,30.2,11111222 
ENP,ioos.station.NOAA.NDBC:DKKF1:1,2009-12-11T05:00:00Z,25.1800,-80.4900,1.5,30.7,11111222 
ENP,ioos.station.NOAA.NDBC:DKKF1:1,2009-12-11T06:00:00Z,25.1800,-80.4900,1.5,30.8,11111222 
ENP,ioos.station.NOAA.NDBC:DKKF1:1,2009-12-11T07:00:00Z,25.1800,-80.4900,1.5,30.3,11111222 
ENP,ioos.station.NOAA.NDBC:DKKF1:1,2009-12-11T08:00:00Z,25.1800,-80.4900,1.5,30.5,11111222 
ENP,ioos.station.NOAA.NDBC:DKKF1:1,2009-12-11T09:00:00Z,25.1800,-80.4900,1.5,30.3,11111222 
ENP,ioos.station.NOAA.NDBC:DKKF1:1,2009-12-11T10:00:00Z,25.1800,-80.4900,1.5,30.4,11111222 
ENP,ioos.station.NOAA.NDBC:DKKF1:1,2009-12-11T11:00:00Z,25.1800,-80.4900,1.5,30.5,11111222 
ENP,ioos.station.NOAA.NDBC:DKKF1:1,2009-12-11T12:00:00Z,25.1800,-80.4900,1.5,30.6,11111222 
ENP,ioos.station.NOAA.NDBC:DKKF1:1,2009-12-11T13:00:00Z,25.1800,-80.4900,1.5,30.7,11111222 
ENP,ioos.station.NOAA.NDBC:DKKF1:1,2009-12-11T14:00:00Z,25.1800,-80.4900,1.5,30.7,11111222 
ENP,ioos.station.NOAA.NDBC:DKKF1:1,2009-12-11T15:00:00Z,25.1800,-80.4900,1.5,30.6,11111222 
ENP,ioos.station.NOAA.NDBC:DKKF1:1,2009-12-11T17:00:00Z,25.1800,-80.4900,1.5,30.6,11111222 
ENP,ioos.station.NOAA.NDBC:DKKF1:1,2009-12-11T18:00:00Z,25.1800,-80.4900,1.5,30.6,11111222 
ENP,ioos.station.NOAA.NDBC:DKKF1:1,2009-12-11T19:00:00Z,25.1800,-80.4900,1.5,30.6,11111222 
ENP,ioos.station.NOAA.NDBC:DKKF1:1,2009-12-11T20:00:00Z,25.1800,-80.4900,1.5,30.6,11111222 
ENP,ioos.station.NOAA.NDBC:DKKF1:1,2009-12-11T21:00:00Z,25.1800,-80.4900,1.5,30.7,11111222 
ENP,ioos.station.NOAA.NDBC:DKKF1:1,2009-12-11T22:00:00Z,25.1800,-80.4900,1.5,30.7,11111222 
ENP,ioos.station.NOAA.NDBC:DKKF1:1,2009-12-11T23:00:00Z,25.1800,-80.4900,1.5,30.7,11111222 
ENP,ioos.station.NOAA.NDBC:DKKF1:1,2009-12-12T00:00:00Z,25.1800,-80.4900,1.5,30.6,11111222 
ENP,ioos.station.NOAA.NDBC:DKKF1:1,2009-12-12T01:00:00Z,25.1800,-80.4900,1.5,30.6,11111222 
ENP,ioos.station.NOAA.NDBC:DKKF1:1,2009-12-12T02:00:00Z,25.1800,-80.4900,1.5,30.7,11111222 
ENP,ioos.station.NOAA.NDBC:DKKF1:1,2009-12-12T03:00:00Z,25.1800,-80.4900,1.5,30.7,11111222 
ENP,ioos.station.NOAA.NDBC:DKKF1:1,2009-12-12T04:00:00Z,25.1800,-80.4900,1.5,30.7,11111222 
ENP,ioos.station.NOAA.NDBC:DKKF1:1,2009-12-12T05:00:00Z,25.1800,-80.4900,1.5,30.7,11111222 
ENP,ioos.station.NOAA.NDBC:DKKF1:1,2009-12-12T06:00:00Z,25.1800,-80.4900,1.5,30.6,11111222 
ENP,ioos.station.NOAA.NDBC:DKKF1:1,2009-12-12T07:00:00Z,25.1800,-80.4900,1.5,30.7,11111222 
ENP,ioos.station.NOAA.NDBC:DKKF1:1,2009-12-12T08:00:00Z,25.1800,-80.4900,1.5,30.7,11111222 
ENP,ioos.station.NOAA.NDBC:DKKF1:1,2009-12-12T09:00:00Z,25.1800,-80.4900,1.5,30.7,11111222 
ENP,ioos.station.NOAA.NDBC:DKKF1:1,2009-12-12T11:00:00Z,25.1800,-80.4900,1.5,30.7,11111222 
ENP,ioos.station.NOAA.NDBC:DKKF1:1,2009-12-12T12:00:00Z,25.1800,-80.4900,1.5,30.7,11111222 
ENP,ioos.station.NOAA.NDBC:DKKF1:1,2009-12-12T22:00:00Z,25.1800,-80.4900,1.5,30.7,11111222 
ENP,ioos.station.NOAA.NDBC:DKKF1:1,2009-12-12T23:00:00Z,25.1800,-80.4900,1.5,30.6,11111222 
ENP,ioos.station.NOAA.NDBC:DKKF1:1,2009-12-13T00:00:00Z,25.1800,-80.4900,1.5,30.7,11111222 
ENP,ioos.station.NOAA.NDBC:DKKF1:1,2009-12-13T01:00:00Z,25.1800,-80.4900,1.5,30.7,11111222 
ENP,ioos.station.NOAA.NDBC:DKKF1:1,2009-12-13T02:00:00Z,25.1800,-80.4900,1.5,30.7,11111222 
ENP,ioos.station.NOAA.NDBC:DKKF1:1,2009-12-13T03:00:00Z,25.1800,-80.4900,1.5,30.7,11111222 
ENP,ioos.station.NOAA.NDBC:DKKF1:1,2009-12-13T04:00:00Z,25.1800,-80.4900,1.5,30.7,11111222 
ENP,ioos.station.NOAA.NDBC:DKKF1:1,2009-12-13T05:00:00Z,25.1800,-80.4900,1.5,30.6,11111222 
ENP,ioos.station.NOAA.NDBC:DKKF1:1,2009-12-13T06:00:00Z,25.1800,-80.4900,1.5,30.7,11111222 
ENP,ioos.station.NOAA.NDBC:DKKF1:1,2009-12-13T07:00:00Z,25.1800,-80.4900,1.5,30.7,11111222 
ENP,ioos.station.NOAA.NDBC:DKKF1:1,2009-12-13T08:00:00Z,25.1800,-80.4900,1.5,30.3,11111222 
ENP,ioos.station.NOAA.NDBC:DKKF1:1,2009-12-13T09:00:00Z,25.1800,-80.4900,1.5,30.3,11111222 
ENP,ioos.station.NOAA.NDBC:DKKF1:1,2009-12-13T10:00:00Z,25.1800,-80.4900,1.5,30.4,11111222 
ENP,ioos.station.NOAA.NDBC:DKKF1:1,2009-12-13T11:00:00Z,25.1800,-80.4900,1.5,30.7,11111222 
ENP,ioos.station.NOAA.NDBC:DKKF1:1,2009-12-13T12:00:00Z,25.1800,-80.4900,1.5,30.6,11111222 
ENP,ioos.station.NOAA.NDBC:DKKF1:1,2009-12-13T13:00:00Z,25.1800,-80.4900,1.5,30.6,11111222 
ENP,ioos.station.NOAA.NDBC:DKKF1:1,2009-12-13T14:00:00Z,25.1800,-80.4900,1.5,29.3,11111222 
ENP,ioos.station.NOAA.NDBC:DKKF1:1,2009-12-13T15:00:00Z,25.1800,-80.4900,1.5,28.4,11111222 
ENP,ioos.station.NOAA.NDBC:DKKF1:1,2009-12-13T16:00:00Z,25.1800,-80.4900,1.5,29.9,11111222 
ENP,ioos.station.NOAA.NDBC:DKKF1:1,2009-12-13T17:00:00Z,25.1800,-80.4900,1.5,30.7,11111222 
ENP,ioos.station.NOAA.NDBC:DKKF1:1,2009-12-13T18:00:00Z,25.1800,-80.4900,1.5,30.7,11111222 
ENP,ioos.station.NOAA.NDBC:DKKF1:1,2009-12-13T19:00:00Z,25.1800,-80.4900,1.5,30.7,11111222 
ENP,ioos.station.NOAA.NDBC:DKKF1:1,2009-12-13T20:00:00Z,25.1800,-80.4900,1.5,30.7,11111222 
ENP,ioos.station.NOAA.NDBC:DKKF1:1,2009-12-13T21:00:00Z,25.1800,-80.4900,1.5,30.7,11111222 
ENP,ioos.station.NOAA.NDBC:DKKF1:1,2009-12-13T22:00:00Z,25.1800,-80.4900,1.5,30.7,11111222 
ENP,ioos.station.NOAA.NDBC:DKKF1:1,2009-12-13T23:00:00Z,25.1800,-80.4900,1.5,30.7,11111222 
ENP,ioos.station.NOAA.NDBC:DKKF1:1,2009-12-14T00:00:00Z,25.1800,-80.4900,1.5,30.4,11111222 
ENP,ioos.station.NOAA.NDBC:DKKF1:1,2009-12-14T01:00:00Z,25.1800,-80.4900,1.5,30.4,11111222 
ENP,ioos.station.NOAA.NDBC:DKKF1:1,2009-12-14T02:00:00Z,25.1800,-80.4900,1.5,30.4,11111222 
ENP,ioos.station.NOAA.NDBC:DKKF1:1,2009-12-14T03:00:00Z,25.1800,-80.4900,1.5,30.4,11111222 
ENP,ioos.station.NOAA.NDBC:DKKF1:1,2009-12-14T04:00:00Z,25.1800,-80.4900,1.5,30.4,11111222 
ENP,ioos.station.NOAA.NDBC:DKKF1:1,2009-12-14T05:00:00Z,25.1800,-80.4900,1.5,30.4,11111222 
ENP,ioos.station.NOAA.NDBC:DKKF1:1,2009-12-14T06:00:00Z,25.1800,-80.4900,1.5,30.6,11111222 
ENP,ioos.station.NOAA.NDBC:DKKF1:1,2009-12-14T07:00:00Z,25.1800,-80.4900,1.5,30.6,11111222 
ENP,ioos.station.NOAA.NDBC:DKKF1:1,2009-12-14T08:00:00Z,25.1800,-80.4900,1.5,30.6,11111222 
ENP,ioos.station.NOAA.NDBC:DKKF1:1,2009-12-14T09:00:00Z,25.1800,-80.4900,1.5,30.6,11111222 
ENP,ioos.station.NOAA.NDBC:DKKF1:1,2009-12-14T10:00:00Z,25.1800,-80.4900,1.5,30.6,11111222 
ENP,ioos.station.NOAA.NDBC:DKKF1:1,2009-12-14T11:00:00Z,25.1800,-80.4900,1.5,30.7,11111222 
ENP,ioos.station.NOAA.NDBC:DKKF1:1,2009-12-14T12:00:00Z,25.1800,-80.4900,1.5,30.8,11111222 
ENP,ioos.station.NOAA.NDBC:DKKF1:1,2009-12-14T13:00:00Z,25.1800,-80.4900,1.5,30.9,11111222 
ENP,ioos.station.NOAA.NDBC:DKKF1:1,2009-12-14T14:00:00Z,25.1800,-80.4900,1.5,30.9,11111222 
ENP,ioos.station.NOAA.NDBC:DKKF1:1,2009-12-14T15:00:00Z,25.1800,-80.4900,1.5,30.9,11111222 
ENP,ioos.station.NOAA.NDBC:DKKF1:1,2009-12-14T16:00:00Z,25.1800,-80.4900,1.5,31.1,11111222 
ENP,ioos.station.NOAA.NDBC:DKKF1:1,2009-12-14T17:00:00Z,25.1800,-80.4900,1.5,31.1,11111222 
ENP,ioos.station.NOAA.NDBC:DKKF1:1,2009-12-14T18:00:00Z,25.1800,-80.4900,1.5,31.1,11111222 
ENP,ioos.station.NOAA.NDBC:DKKF1:1,2009-12-14T19:00:00Z,25.1800,-80.4900,1.5,31.1,11111222 
ENP,ioos.station.NOAA.NDBC:DKKF1:1,2009-12-14T20:00:00Z,25.1800,-80.4900,1.5,31.1,11111222 
ENP,ioos.station.NOAA.NDBC:DKKF1:1,2009-12-14T21:00:00Z,25.1800,-80.4900,1.5,31.1,11111222 
ENP,ioos.station.NOAA.NDBC:DKKF1:1,2009-12-14T22:00:00Z,25.1800,-80.4900,1.5,31.2,11111222 
ENP,ioos.station.NOAA.NDBC:DKKF1:1,2009-12-14T23:00:00Z,25.1800,-80.4900,1.5,30.9,11111222 
ENP,ioos.station.NOAA.NDBC:DKKF1:1,2009-12-15T00:00:00Z,25.1800,-80.4900,1.5,30.9,11111222 
ENP,ioos.station.NOAA.NDBC:DKKF1:1,2009-12-15T01:00:00Z,25.1800,-80.4900,1.5,31.0,11111222 
ENP,ioos.station.NOAA.NDBC:DKKF1:1,2009-12-15T02:00:00Z,25.1800,-80.4900,1.5,30.7,11111222 
ENP,ioos.station.NOAA.NDBC:DKKF1:1,2009-12-15T03:00:00Z,25.1800,-80.4900,1.5,30.8,11111222 
ENP,ioos.station.NOAA.NDBC:DKKF1:1,2009-12-15T04:00:00Z,25.1800,-80.4900,1.5,31.0,11111222 
ENP,ioos.station.NOAA.NDBC:DKKF1:1,2009-12-15T05:00:00Z,25.1800,-80.4900,1.5,31.1,11111222 
ENP,ioos.station.NOAA.NDBC:DKKF1:1,2009-12-15T06:00:00Z,25.1800,-80.4900,1.5,30.9,11111222 
ENP,ioos.station.NOAA.NDBC:DKKF1:1,2009-12-15T07:00:00Z,25.1800,-80.4900,1.5,30.8,11111222 
ENP,ioos.station.NOAA.NDBC:DKKF1:1,2009-12-15T08:00:00Z,25.1800,-80.4900,1.5,30.9,11111222 
ENP,ioos.station.NOAA.NDBC:DKKF1:1,2009-12-15T09:00:00Z,25.1800,-80.4900,1.5,30.9,11111222 
ENP,ioos.station.NOAA.NDBC:DKKF1:1,2009-12-15T10:00:00Z,25.1800,-80.4900,1.5,30.9,11111222 
ENP,ioos.station.NOAA.NDBC:DKKF1:1,2009-12-15T11:00:00Z,25.1800,-80.4900,1.5,31.1,11111222 
ENP,ioos.station.NOAA.NDBC:DKKF1:1,2009-12-15T13:00:00Z,25.1800,-80.4900,1.5,31.1,11111222 
ENP,ioos.station.NOAA.NDBC:DKKF1:1,2009-12-15T14:00:00Z,25.1800,-80.4900,1.5,31.1,11111222 
ENP,ioos.station.NOAA.NDBC:DKKF1:1,2009-12-15T15:00:00Z,25.1800,-80.4900,1.5,31.1,11111222 
ENP,ioos.station.NOAA.NDBC:DKKF1:1,2009-12-15T16:00:00Z,25.1800,-80.4900,1.5,31.0,11111222 
ENP,ioos.station.NOAA.NDBC:DKKF1:1,2009-12-15T17:00:00Z,25.1800,-80.4900,1.5,31.1,11111222 
ENP,ioos.station.NOAA.NDBC:DKKF1:1,2009-12-15T18:00:00Z,25.1800,-80.4900,1.5,31.0,11111222 
ENP,ioos.station.NOAA.NDBC:DKKF1:1,2009-12-15T19:00:00Z,25.1800,-80.4900,1.5,31.1,11111222 
ENP,ioos.station.NOAA.NDBC:DKKF1:1,2009-12-15T20:00:00Z,25.1800,-80.4900,1.5,31.0,11111222 
ENP,ioos.station.NOAA.NDBC:DKKF1:1,2009-12-15T21:00:00Z,25.1800,-80.4900,1.5,31.1,11111222 
ENP,ioos.station.NOAA.NDBC:DKKF1:1,2009-12-15T22:00:00Z,25.1800,-80.4900,1.5,31.1,11111222 